UAL25TF KEWR-LPPT

Flight info

Callsign UAL25TF
Flight time N/A
Altitude 39000
Route MERIT DCT HFD DCT PUT DCT TUSKY DCT SUPRY/M084F390 DCT 46N050W 46N040W 43N030W/M084F410 41N020W DCT ERPES/N0485F410 DCT LAZET
Aircraft B772/H-SDE2E3FGHIJ5LORVWXY/LB1D1

Departure

Time 2026-05-07 16:43
Airport Newark Liberty International Airport (KEWR)

Arrival

Time N/A
Airport Lisbon Humberto Delgado Airport (LPPT)
Time Latitude Longitude Altitude Speed Heading
2026-05-07 16:24 40.69653 -74.17267 26 ft 0 kts 194°
2026-05-07 16:32 40.69663 -74.17264 26 ft 2 kts 188°
2026-05-07 16:32 40.69679 -74.17260 24 ft 2 kts 188°
2026-05-07 16:32 40.69695 -74.17258 25 ft 2 kts 182°
2026-05-07 16:33 40.69712 -74.17258 25 ft 2 kts 174°
2026-05-07 16:33 40.69726 -74.17253 24 ft 2 kts 217°
2026-05-07 16:33 40.69740 -74.17242 25 ft 2 kts 199°
2026-05-07 16:33 40.69756 -74.17237 25 ft 2 kts 183°
2026-05-07 16:34 40.69761 -74.17236 25 ft 2 kts 172°
2026-05-07 16:34 40.69769 -74.17237 25 ft 1 kts 144°
2026-05-07 16:34 40.69770 -74.17237 25 ft 0 kts 140°
2026-05-07 16:38 40.69735 -74.17202 25 ft 14 kts 144°
2026-05-07 16:38 40.69633 -74.17124 26 ft 17 kts 154°
2026-05-07 16:38 40.69514 -74.17079 26 ft 20 kts 168°
2026-05-07 16:38 40.69355 -74.17087 26 ft 26 kts 193°
2026-05-07 16:39 40.69175 -74.17184 26 ft 29 kts 205°
2026-05-07 16:39 40.68995 -74.17300 26 ft 29 kts 207°
2026-05-07 16:39 40.68814 -74.17415 27 ft 29 kts 206°
2026-05-07 16:39 40.68634 -74.17529 27 ft 29 kts 205°
2026-05-07 16:40 40.68453 -74.17644 27 ft 29 kts 206°
2026-05-07 16:40 40.68274 -74.17758 26 ft 29 kts 206°
2026-05-07 16:40 40.68093 -74.17873 26 ft 29 kts 206°
2026-05-07 16:40 40.67913 -74.17989 27 ft 29 kts 206°
2026-05-07 16:41 40.67733 -74.18104 27 ft 29 kts 205°
2026-05-07 16:41 40.67627 -74.18092 27 ft 0 kts 134°
2026-05-07 16:41 40.67607 -74.18062 27 ft 11 kts 131°
2026-05-07 16:41 40.67562 -74.17959 27 ft 6 kts 89°
2026-05-07 16:42 40.67587 -74.17913 27 ft 6 kts 37°
2026-05-07 16:42 40.67641 -74.17880 26 ft 19 kts 25°
2026-05-07 16:42 40.68052 -74.17620 28 ft 114 kts 25°
2026-05-07 16:42 40.68998 -74.17015 172 ft 170 kts 25°
2026-05-07 16:43 40.70086 -74.16325 843 ft 182 kts 23°
2026-05-07 16:43 40.71226 -74.15492 1892 ft 197 kts 35°
2026-05-07 16:43 40.72297 -74.14269 2511 ft 215 kts 39°
2026-05-07 16:43 40.73427 -74.12922 3198 ft 222 kts 38°
2026-05-07 16:44 40.74604 -74.11528 3899 ft 231 kts 40°
2026-05-07 16:44 40.75800 -74.10109 4620 ft 236 kts 33°
2026-05-07 16:44 40.77228 -74.08861 5023 ft 256 kts 28°
2026-05-07 16:44 40.78762 -74.07612 4986 ft 258 kts 34°
2026-05-07 16:45 40.79899 -74.05755 5279 ft 273 kts 64°
2026-05-07 16:45 40.80298 -74.03256 5991 ft 286 kts 83°
2026-05-07 16:45 40.80371 -74.00577 6684 ft 297 kts 87°
2026-05-07 16:45 40.80409 -73.97785 7260 ft 311 kts 88°
2026-05-07 16:46 40.80488 -73.94916 7993 ft 314 kts 82°
2026-05-07 16:46 40.81106 -73.92131 8533 ft 322 kts 63°
2026-05-07 16:46 40.82125 -73.89444 9138 ft 333 kts 58°
2026-05-07 16:46 40.83248 -73.86727 9793 ft 340 kts 58°
2026-05-07 16:47 40.84525 -73.84084 10209 ft 343 kts 45°
2026-05-07 16:47 40.86197 -73.81730 10467 ft 363 kts 38°
2026-05-07 16:47 40.88113 -73.79376 10660 ft 388 kts 37°
2026-05-07 16:47 40.90171 -73.76902 10911 ft 411 kts 38°
2026-05-07 16:48 40.92309 -73.74280 11497 ft 425 kts 39°
2026-05-07 16:48 40.94482 -73.71544 12218 ft 435 kts 39°
2026-05-07 16:48 40.96670 -73.68730 12987 ft 444 kts 40°
2026-05-07 16:48 40.98891 -73.65835 13770 ft 451 kts 40°
2026-05-07 16:49 41.01114 -73.62914 14470 ft 457 kts 41°
2026-05-07 16:49 41.03372 -73.59935 15314 ft 460 kts 41°
2026-05-07 16:49 41.05643 -73.56935 16160 ft 462 kts 41°
2026-05-07 16:49 41.07931 -73.53911 16914 ft 467 kts 41°
2026-05-07 16:50 41.10246 -73.50854 17604 ft 472 kts 41°
2026-05-07 16:50 41.12584 -73.47765 18308 ft 476 kts 41°
2026-05-07 16:50 41.14944 -73.44645 18848 ft 483 kts 40°
2026-05-07 16:50 41.17350 -73.41463 19292 ft 492 kts 40°
2026-05-07 16:51 41.19791 -73.38230 19809 ft 500 kts 40°
2026-05-07 16:51 41.21425 -73.36063 20196 ft 503 kts 40°
2026-05-07 16:51 41.24726 -73.31677 20871 ft 511 kts 40°
2026-05-07 16:51 41.26430 -73.29410 21169 ft 516 kts 40°
2026-05-07 16:52 41.28988 -73.26006 21541 ft 525 kts 39°
2026-05-07 16:52 41.31589 -73.22539 21979 ft 533 kts 39°
2026-05-07 16:52 41.34224 -73.19023 22467 ft 539 kts 39°
2026-05-07 16:52 41.36812 -73.15373 23005 ft 548 kts 44°
2026-05-07 16:53 41.39205 -73.11380 23637 ft 554 kts 50°
2026-05-07 16:53 41.41327 -73.07058 24047 ft 562 kts 56°
2026-05-07 16:53 41.43303 -73.02528 24418 ft 569 kts 57°
2026-05-07 16:53 41.45188 -72.98121 24749 ft 575 kts 58°
2026-05-07 16:54 41.47178 -72.93468 25043 ft 580 kts 57°
2026-05-07 16:54 41.49204 -72.88778 25358 ft 587 kts 57°
2026-05-07 16:54 41.51267 -72.84049 25716 ft 592 kts 57°
2026-05-07 16:54 41.53351 -72.79298 26118 ft 595 kts 57°
2026-05-07 16:55 41.55450 -72.74522 26507 ft 599 kts 57°
2026-05-07 16:55 41.57564 -72.69702 26859 ft 603 kts 57°
2026-05-07 16:55 41.59684 -72.64851 27167 ft 607 kts 57°
2026-05-07 16:55 41.61819 -72.59953 27422 ft 612 kts 57°
2026-05-07 16:56 41.63934 -72.55092 27752 ft 616 kts 57°
2026-05-07 16:56 41.66113 -72.50137 28106 ft 618 kts 57°
2026-05-07 16:56 41.70581 -72.40237 28710 ft 626 kts 56°
2026-05-07 16:57 41.72850 -72.35241 28949 ft 630 kts 56°
2026-05-07 16:57 41.75120 -72.30222 29204 ft 633 kts 56°
2026-05-07 16:57 41.77402 -72.25148 29432 ft 636 kts 56°
2026-05-07 16:57 41.79679 -72.20059 29744 ft 637 kts 57°
2026-05-07 16:58 41.81954 -72.14956 30003 ft 639 kts 57°
2026-05-07 16:58 41.84234 -72.09831 30275 ft 641 kts 57°
2026-05-07 16:58 41.86517 -72.04690 30561 ft 642 kts 57°
2026-05-07 16:58 41.88737 -71.99686 30907 ft 640 kts 57°
2026-05-07 16:59 41.90996 -71.94589 31273 ft 638 kts 56°
2026-05-07 16:59 41.93263 -71.89468 31589 ft 637 kts 56°
2026-05-07 16:59 41.95502 -71.84346 32001 ft 635 kts 58°
2026-05-07 16:59 41.97554 -71.79098 32418 ft 635 kts 62°
2026-05-07 17:00 41.99504 -71.73759 32643 ft 638 kts 63°
2026-05-07 17:00 42.01413 -71.68379 32914 ft 639 kts 63°
2026-05-07 17:00 42.03309 -71.62977 33291 ft 637 kts 63°
2026-05-07 17:00 42.05200 -71.57590 33685 ft 635 kts 63°
2026-05-07 17:01 42.07090 -71.52238 34050 ft 632 kts 63°
2026-05-07 17:01 42.08980 -71.46920 34523 ft 627 kts 63°
2026-05-07 17:01 42.10865 -71.41641 34972 ft 624 kts 62°
2026-05-07 17:01 42.12742 -71.36393 35311 ft 622 kts 62°
2026-05-07 17:02 42.14616 -71.31147 35621 ft 620 kts 62°
2026-05-07 17:02 42.16482 -71.25914 35957 ft 618 kts 63°
2026-05-07 17:02 42.18334 -71.20703 36314 ft 615 kts 63°
2026-05-07 17:02 42.20177 -71.15503 36659 ft 613 kts 63°
2026-05-07 17:03 42.21993 -71.10365 36998 ft 610 kts 63°
2026-05-07 17:03 42.23812 -71.05211 37337 ft 608 kts 63°
2026-05-07 17:03 42.25618 -71.00078 37825 ft 603 kts 63°
2026-05-07 17:03 42.27328 -70.95210 38282 ft 597 kts 63°
2026-05-07 17:04 42.29093 -70.90176 38622 ft 593 kts 63°
2026-05-07 17:04 42.30858 -70.85134 38695 ft 595 kts 63°
2026-05-07 17:04 42.34393 -70.75021 38810 ft 599 kts 63°
2026-05-07 17:05 42.37916 -70.64902 38864 ft 599 kts 63°
2026-05-07 17:05 42.41454 -70.54697 38815 ft 597 kts 63°
2026-05-07 17:06 42.44967 -70.44523 38815 ft 595 kts 63°
2026-05-07 17:06 42.48458 -70.34382 38812 ft 594 kts 63°
2026-05-07 17:07 42.51939 -70.24232 38832 ft 594 kts 64°
2026-05-07 17:07 42.55407 -70.14082 38807 ft 592 kts 64°
2026-05-07 17:08 42.58859 -70.03940 38804 ft 592 kts 64°
2026-05-07 17:08 42.62241 -69.93970 38816 ft 592 kts 64°
2026-05-07 17:09 42.65675 -69.83808 38778 ft 592 kts 64°
2026-05-07 17:09 42.69102 -69.73627 38805 ft 592 kts 64°
2026-05-07 17:10 42.72523 -69.63430 38812 ft 593 kts 64°